SCP
0 0 0 0 0 0 0 0 0 0 0 0 0 0 0 0 0 0 0 0 0 0 0 0 0 0 0 0 0 0 0 0 0 0 0 0 0 0 0 0 0 0 0 0
0 0 0 0 0 0 0 0 0 0 0 0 0 0 0 0 0 0 0 0 0 0 0 0 0 0 0 0 0 0 0 0 0 0 0 0 0 0 0 0 0 0 0 0
0 0 0 0 0 0 0 0 0 0 0 0 0 0 0 0 0 0 0 0 0 0 0 0 0 0 0 0 0 0 0 0 0 0 0 0 0 0 0 0 0 0 0 0
0 0 0 0 0 0 0 0 0 0 0 0 0 0 0 0 0 0 0 0 0 0 0 0 0 0 0 0 0 0 0 0 0 0 0 0 0 0 0 0 0 0 0 0
0 0 0 0 0 0 0 0 0 0 0 0 0 0 0 0 0 0 0 0 0 0 0 0 0 0 0 0 0 0 0 0 0 0 0 0 0 0 0 0 0 0 0 0
0 0 0 0 0 0 0 0 0 0 0 0 0 0 0 0 0 0 0 0 0 0 0 0 0 0 0 0 0 0 0 0 0 0 0 0 0 0 0 0 0 0 0 0
0 0 0 0 0 0 0 0 0 0 0 0 0 0 0 0 0 0 0 0 0 0 0 0 0 0 0 0 0 0 0 0 0 0 0 0 0 0 0 0 0 0 0 0
0 0 0 0 0 0 0 0 0 0 0 0 0 0 0 0 0 0 0 0 0 0 0 0 0 0 0 0 0 0 0 0 0 0 0 0 0 0 0 0 0 0 0 0
0 0 0 0 0 0 0 0 0 0 0 0 0 0 0 0 0 0 0 0 0 0 0 0 0 0 0 0 0 0 0 0 0 0 0 0 0 0 0 0 0 0 0 0
0 0 0 0 0 0 0 0 0 0 0 0 0 0 0 0 0 0 0 0 0 0 0 0 0 0 0 0 0 0 0 0 0 0 0 0 0 0 0 0 0 0 0 0
0 0 0 0 0 0 0 0 0 0 0 0 0 0 0 0 0 0 0 0 0 0 0 0 0 0 0 0 0 0 0 0 0 0 0 0 0 0 0 0 0 0 0 0
0 0 0 0 0 0 0 0 0 0 0 0 0 0 0 0 0 0 0 0 0 0 0 0 0 0 0 0 0 0 0 0 0 0 0 0 0 0 0 0 0 0 0 0
0 0 0 0 0 0 0 0 0 0 0 0 0 0 0 0 0 0 0 0 0 0 0 0 0 0 0 0 0 0 0 0 0 0 0 0 0 0 0 0 0 0 0 0
0 0 0 0 0 0 0 0 0 0 0 0 0 0 0 0 0 0 0 0 0 0 0 0 0 0 0 0 0 0 0 0 0 0 0 0 0 0 0 0 0 0 0 0
0 0 0 0 0 0 0 0 0 0 0 0 0 0 0 0 0 0 0 0 0 0 0 0 0 0 0 0 0 0 0 0 0 0 0 0 0 0 0 0 0 0 0 0
0 0 0 0 0 0 0 0 0 0 0 0 0 0 0 0 0 0 0 0 0 0 0 0 0 0 0 0 0 0 0 0 0 0 0 0 0 0 0 0 0 0 0 0
0 0 0 0 0 0 0 0 0 0 0 0 0 0 0 0 0 0 0 0 0 0 0 0 0 0 0 0 0 0 0 0 0 0 0 0 0 0 0 0 0 0 0 0
0 0 0 0 0 0 0 0 0 0 0 0 0 0 0 0 0 0 0 0 0 0 0 0 0 0 0 0 0 0 0 0 0 0 0 0 0 0 0 0 0 0 0 0
0 0 0 0 0 0 0 0 0 0 0 0 0 0 0 0 0 0 0 0 0 0 0 0 0 0 0 0 0 0 0 0 0 0 0 0 0 0 0 0 0 0 0 0
0 0 0 0 0 0 0 0 0 0 0 0 0 0 0 0 0 0 0 0 0 0 0 0 0 0 0 0 0 0 0 0 0 0 0 0 0 0 0 0 0 0 0 0
0 0 0 0 0 0 0 0 0 0 0 0 0 0 0 0 0 0 0 0 0 0 0 0 0 0 0 0 0 0 0 0 0 0 0 0 0 0 0 0 0 0 0 0
0 0 0 0 0 0 0 0 0 0 0 0 0 0 0 0 0 0 0 0 0 0 0 0 0 0 0 0 0 0 0 0 0 0 0 0 0 0 0 0 0 0 0 0
0 0 0 0 0 0 0 0 0 0 0 0 0 0 0 0 0 0 0 0 0 0 0 0 0 0 0 0 0 0 0 0 0 0 0 0 0 0 0 0 0 0 0 0
0 0 0 0 0 0 0 0 0 0 0 0 0 0 0 0 0 0 0 0 0 0 0 0 0 0 0 0 0 0 0 0 0 0 0 0 0 0 0 0 0 0 0 0
0 0 0 0 0 0 0 0 0 0 0 0 0 0 0 0 0 0 0 0 0 0 0 0 0 0 0 0 0 0 0 0 0 0 0 0 0 0 0 0 0 0 0 0
0 0 0 0 0 0 0 0 0 0 0 0 0 0 0 0 0 0 0 0 0 0 0 0 0 0 0 0 0 0 0 0 0 0 0 0 0 0 0 0 0 0 0 0
0 0 0 0 0 0 0 0 0 0 0 0 0 0 0 0 0 0 0 0 0 0 0 0 0 0 0 0 0 0 0 0 0 0 0 0 0 0 0 0 0 0 0 0
Wind_Speed
1 1 3 4 5 5 6 6 6 2 1 4 4 5 6 7 9 9 9 9 9 8 8 8 7 6 6 5 5 5 5 5 5 4 4 3 3 4 4 4 4 4 5 5
3 3 4 4 4 5 4 4 3 2 2 4 5 5 6 8 9 9 9 9 9 9 8 8 8 7 6 6 5 5 5 5 4 3 3 3 3 3 4 4 5 5 6 6
3 4 6 4 3 4 3 2 3 2 2 5 5 5 6 7 8 8 8 8 9 9 8 8 7 7 7 6 6 6 5 5 4 3 3 3 3 3 4 4 4 5 5 5
3 5 6 4 2 1 1 1 2 3 4 5 5 5 5 5 7 8 8 8 8 8 8 7 7 7 6 6 6 6 5 5 4 3 3 3 3 3 3 3 4 4 4 5
4 4 3 4 3 1 2 2 2 4 6 6 7 7 6 5 5 6 8 8 8 8 8 8 7 8 7 7 6 6 5 5 4 3 3 3 3 3 3 3 3 4 4 4
4 5 2 4 4 1 3 4 5 4 6 7 7 5 5 6 6 7 8 8 8 8 9 8 7 8 8 7 6 6 5 4 4 3 3 3 3 2 2 2 2 3 4 4
5 4 2 5 2 3 4 4 5 5 6 6 3 4 7 9 8 8 9 9 9 9 8 8 8 8 8 7 6 5 5 5 4 3 3 3 2 1 1 2 2 2 2 2
3 4 3 4 2 1 5 4 5 5 6 6 7 8 9 9 9 9 9 10 10 9 8 8 8 8 8 7 6 6 5 5 4 3 2 2 2 1 1 1 1 1 1 1
3 4 6 3 4 4 3 4 5 5 7 7 8 9 9 9 9 9 10 9 9 9 9 8 7 7 8 7 7 6 5 4 4 3 2 1 1 1 1 1 0 1 1 2
2 4 4 4 4 3 4 4 5 6 7 8 9 10 10 9 9 9 10 10 9 9 9 8 7 6 6 6 6 5 5 4 3 3 3 2 1 1 0 1 1 1 2 2
3 4 5 4 4 5 6 7 7 7 7 8 10 10 10 10 10 9 9 9 9 9 9 9 8 7 6 6 6 5 4 4 3 3 3 2 1 1 1 2 3 3 3 2
1 4 3 6 6 7 8 8 8 8 9 8 9 10 10 10 9 9 10 9 9 9 9 9 9 8 7 6 6 5 5 4 3 3 2 2 2 3 2 1 1 2 3 5
3 5 6 8 7 7 7 8 8 8 9 9 9 9 10 10 10 10 10 10 10 9 9 8 8 7 7 6 6 5 4 3 2 2 2 2 1 1 2 4 6 6 6 5
6 7 8 8 8 8 8 9 8 9 9 9 9 9 10 10 10 10 10 10 9 9 8 8 8 7 7 6 6 5 4 4 3 3 2 1 1 1 1 1 2 3 7 8
6 5 7 8 9 9 9 9 9 9 9 9 9 9 10 10 10 9 9 9 9 9 8 8 7 7 6 6 6 6 5 4 3 2 2 2 2 2 1 1 1 1 2 5
8 8 9 10 10 10 10 10 9 9 9 9 9 9 9 9 9 9 9 9 9 9 8 8 7 7 7 6 6 5 4 1 3 3 3 3 3 3 2 2 2 2 2 2
10 10 10 10 10 10 9 8 8 8 9 9 9 10 10 9 9 9 8 8 8 7 7 7 7 7 7 7 7 5 5 5 7 6 5 4 3 3 3 3 3 3 2 0
7 8 8 9 9 9 9 8 8 8 8 9 10 10 10 10 9 9 9 8 8 7 7 7 7 7 7 7 6 5 5 5 6 5 4 4 4 4 4 4 4 5 4 4
8 8 8 8 8 8 8 8 8 8 8 9 10 9 9 9 8 9 9 9 9 8 8 7 7 8 8 7 6 6 6 6 5 5 5 4 6 6 5 5 5 5 5 4
8 8 8 8 8 8 7 7 8 7 8 9 9 9 8 8 8 8 8 8 7 6 7 7 9 9 8 8 8 8 7 7 7 6 6 7 7 6 6 6 6 6 6 6
9 9 9 8 8 7 7 7 7 8 8 9 9 8 8 8 8 8 8 7 7 7 7 8 8 7 8 6 9 9 8 7 7 7 7 7 7 7 7 7 7 7 7 7
8 8 8 8 8 7 6 6 7 8 8 8 8 8 8 8 8 8 8 5 5 6 7 8 8 6 5 7 9 8 8 8 8 7 7 7 7 7 7 8 8 7 7 8
7 7 8 7 7 7 6 6 7 7 7 8 8 8 8 7 6 6 6 6 6 8 8 6 5 6 7 9 8 8 8 9 8 8 8 8 8 8 8 8 8 8 8 8
7 7 7 7 7 7 6 6 6 5 6 6 6 7 6 6 6 6 4 5 6 7 7 5 7 9 10 9 9 9 9 9 9 9 9 8 8 9 8 8 9 9 9 11
8 7 7 7 7 6 6 6 6 6 6 5 6 7 6 5 5 5 4 6 7 8 8 7 10 11 10 10 10 9 9 9 8 8 8 9 9 9 9 9 9 9 9 10
7 6 5 5 4 4 4 5 4 5 5 5 5 5 5 4 5 5 5 7 9 8 8 7 8 10 11 11 11 10 10 9 9 10 11 10 11 11 10 10 12 10 10 10
7 6 5 5 5 5 4 4 4 4 4 4 4 4 5 5 5 6 6 6 7 8 8 7 7 8 9 10 10 10 10 10 10 10 10 10 10 11 11 13 11 11 11 11
Wind_Direction
271 240 210 218 226 228 242 274 284 280 210 142 144 143 143 144 144 143 145 147 148 148 147 145 143 140 136 133 129 126 121 111 101 95 90 79 68 56 46 38 34 30 31 34
192 189 202 212 229 231 234 254 265 225 118 95 119 128 141 152 154 153 154 155 154 152 149 151 149 145 139 133 132 133 125 118 110 107 101 87 73 63 52 43 37 37 35 34
205 194 212 207 223 225 219 260 276 275 100 130 139 145 156 162 161 157 156 158 159 157 154 152 150 146 145 142 141 137 132 128 127 121 109 98 78 70 56 46 42 40 36 38
214 218 225 86 73 300 214 92 28 74 114 138 135 133 138 150 158 155 156 157 156 155 152 150 147 147 146 146 146 143 136 132 130 119 106 97 77 63 54 50 44 38 34 33
235 229 182 146 156 214 243 143 109 122 127 128 128 138 136 139 147 150 154 153 151 152 150 148 150 151 152 150 150 146 139 133 124 114 103 95 84 65 50 50 46 40 39 31
233 243 227 111 100 334 254 168 123 137 146 148 167 182 137 138 140 138 142 143 144 146 145 147 152 155 153 150 148 143 138 133 119 108 100 91 82 67 60 52 41 38 42 34
235 236 106 81 97 221 245 80 123 147 151 159 160 60 116 139 137 134 136 139 142 145 146 147 152 155 151 146 144 142 140 133 122 111 108 99 88 68 59 46 42 38 37 41
236 235 117 98 176 332 44 80 129 140 145 139 109 109 127 135 134 135 139 142 145 145 143 146 152 153 148 145 145 148 145 137 131 127 123 116 119 105 81 47 80 73 64 49
356 43 76 87 67 63 74 112 128 136 139 133 129 131 135 136 135 139 142 144 145 144 141 144 151 156 150 147 154 155 151 144 139 141 143 145 159 150 157 163 326 25 41 49
164 124 121 116 103 94 98 110 122 133 139 142 138 137 137 136 140 143 143 144 145 145 143 143 148 153 149 150 157 157 155 151 151 157 159 153 208 193 81 24 6 4 11 17
169 140 143 137 123 115 110 116 121 126 133 137 136 138 140 140 143 145 144 147 149 148 147 147 148 149 153 158 163 162 161 165 168 163 145 153 127 32 357 33 9 334 352 354
137 148 151 125 128 132 132 132 132 131 129 134 138 142 142 139 142 145 145 146 149 151 151 151 152 153 158 164 170 172 173 177 179 170 164 176 148 144 146 245 214 257 289 310
106 115 107 120 132 135 133 132 134 132 133 135 137 143 143 143 145 146 148 151 153 156 155 155 155 156 159 165 172 178 181 179 183 176 172 176 172 178 163 185 216 227 232 245
130 129 131 139 136 136 133 131 132 129 131 133 136 142 144 145 148 152 155 155 156 158 158 158 159 160 164 168 175 181 186 177 203 196 199 196 195 211 214 204 180 185 201 216
156 155 141 137 137 138 138 139 138 136 136 137 142 149 151 152 153 155 155 155 159 163 162 162 164 167 174 179 183 190 197 187 200 204 207 205 215 225 216 236 252 240 195 181
148 144 147 148 147 147 150 152 150 147 147 147 150 153 155 155 154 154 158 163 167 170 167 169 173 176 182 185 190 194 196 201 244 236 223 220 225 234 233 232 244 252 251 246
156 157 159 159 157 157 159 160 155 153 152 154 155 155 155 155 157 161 167 172 175 175 175 179 183 185 188 193 205 205 197 186 208 235 234 235 237 241 246 252 252 253 256 8
164 160 160 160 158 157 159 159 157 155 156 157 156 159 162 164 167 169 172 173 177 182 186 189 190 193 195 199 211 221 217 211 213 225 229 235 247 247 247 249 254 257 256 205
154 151 151 154 156 156 157 157 158 158 157 158 161 165 169 171 173 173 175 181 186 190 192 191 196 206 203 203 218 221 229 229 228 229 234 229 240 248 251 254 256 258 261 266
154 154 154 154 155 155 156 156 155 155 158 162 165 168 172 177 179 180 184 194 200 193 183 186 196 204 206 205 226 229 227 232 234 233 236 239 241 245 247 251 253 254 257 263
154 154 154 153 151 154 156 158 159 160 161 167 172 176 179 181 185 187 194 200 195 194 192 191 207 208 209 206 219 234 234 237 239 237 239 242 245 248 251 252 252 252 255 260
153 151 150 147 146 147 151 158 162 162 163 173 179 179 179 182 188 194 204 211 190 181 201 202 207 206 210 226 228 233 237 240 242 241 241 247 250 252 252 253 254 254 256 259
148 149 151 152 150 148 150 157 162 166 172 178 181 184 188 191 193 197 199 196 198 189 212 215 192 179 204 231 241 242 243 244 245 246 246 247 250 252 254 254 257 260 262 263
144 146 148 150 152 154 156 159 162 171 179 185 186 189 196 197 200 211 210 174 186 189 217 197 180 193 215 236 241 243 243 244 246 250 253 251 249 251 254 256 257 257 259 261
143 145 148 155 161 161 158 164 168 176 185 187 188 189 201 210 209 206 206 195 185 200 221 201 194 205 225 239 241 244 245 247 251 258 256 258 260 258 256 257 258 259 260 261
147 152 150 162 160 166 169 174 180 182 188 189 193 194 201 204 211 209 210 214 209 216 234 223 207 211 230 239 242 245 247 244 240 244 252 256 258 260 262 262 262 262 263 264
156 155 161 170 172 181 183 185 188 190 194 198 201 200 204 207 210 214 220 222 216 217 230 235 230 224 231 238 242 244 246 248 250 251 252 253 255 257 259 259 260 261 263 264